Showing default

TIROS 1, 29

Orbit data source: Space-Track

TIROS 1, 29 is a payload satellite owned by GSFC (US) in LEO that was launched on Fri, 01 Apr 1960 UTC via a THOR ABLE II launch vehicle from the Air Force Eastern Test Range (AFETR). Payload-class satellites include a variety of spacecraft equipped with specific instruments for various scientific and technological missions. These include communications satellites like Starlink; space stations such as the ISS; scientific satellites like the Hubble; Earth observation satellites from companies like Planet Labs, Umbra, and HawkEye 360; GPS; miniature CubeSats for education and research; and military/defense satellites.

Loading next visibility...
Identifier
29, 1960-002B
Orbit
LEO
Country
Flag of USUS
Related business
Manufacturer
RCA/East Windsor
Mission
Non-operational Civil Weather
Bus & Motor
TIROS, Unknown motor
Mass
122 kg wet, 122 kg dry
Launch date (UTC)
1960-04-01 (65 years ago)
Launch vehicle
THOR ABLE II
Launch site
Air Force Eastern Test Range (AFETR)
Object type
Payload
Rocket body
Debris
Shape & HBR
Cyl, 0.5 m
Radar Cross Section
0.853 m², Medium (>0.1 m² and < 1m²)

Expand to show TLE details & history
Last TLE update: 1 day ago

TLE from 1 day ago
0 TIROS 1
1 00029U 60002B   25260.31038284  .00000532  00000-0  10153-3 0  9996
2 00029  48.3774 240.9611 0022199 174.9158 185.1985 14.78167643501759
Epoch: 2025-09-17T07:26Z
TLE epoch observation values (Epoch: 2025-09-17T07:26:57.077Z)
Latitude
0.00001°
Longitude
132.73513°
Altitude
650.985 km
Speed
7.525 km/s
True Right ascension
16h 03m 50s
True Declination
0° 00' 00"
Sunlit
Object was in daylight at epoch
Visualization orbit readout
Latitude
Unknown
Longitude
Unknown
Altitude
Unknown
Speed
Unknown
Apparent Right ascension
Unknown
Apparent Declination
Unknown
Sunlit
N/A
Visualization observer readout
Local Sidereal Time
04:29:27
Azimuth
Unknown
Elevation
Unknown
Doppler factor
Unknown
Orbital elements
Apogee altitude
651.705 km
Perigee altitude
620.563 km
Semi-major axis
7,014.271 km
Eccentricity
0.00222
Inclination
48.3774°
RAAN
240.9611°
Arg. of periapsis
174.9158°
True anomaly
185.17551°
Mean anomaly
185.1985°
Eccentric anomaly
185.187°
Mean motion
3.69462 °/min
Orbital period
97.44 mins
BSTAR
0.00010153
Loading maneuver chart data...
Computing Atmospheric mass density...
Loading historical data...
Loading historical data...
Loading historical data...
Loading historical data...
Loading historical data...
Loading historical data...
Loading historical data...
Other satellites on launch #2 in the year 1960 (1960-04-01 UTC)

Documentation

Showing up to 5 results
|